GFSNGP_prec_cloud_126.txt.gz
Cloud_Cover
5 12 28 5 4 81 5 93 51 87 5 5 12 5 83 98 95 90 100 100 100 100 100 100 100 100 100 100 100 100 100 100 100 100 100 100 100 100 100 100 100 100 100 100
5 100 21 6 94 81 100 100 16 5 18 5 5 7 90 100 100 100 100 100 100 100 100 100 100 100 100 100 100 100 100 100 100 100 100 100 100 100 100 100 100 100 100 100
9 98 9 100 32 71 68 40 5 2 31 99 91 100 97 93 100 100 100 100 100 100 100 100 100 100 100 100 100 100 100 100 100 100 100 100 100 100 100 100 100 100 100 100
94 19 78 100 95 100 41 6 56 86 99 100 100 100 100 100 100 100 100 100 100 100 100 100 100 100 100 100 100 100 100 100 100 100 100 100 100 100 100 100 100 100 100 100
100 73 100 100 100 98 6 26 28 44 86 100 100 100 100 100 100 100 100 100 100 100 100 100 100 100 100 100 100 100 100 100 100 100 100 100 100 100 100 100 100 100 100 100
100 78 100 100 98 6 5 86 5 5 69 100 100 100 100 100 100 100 100 100 100 100 100 100 100 100 100 100 100 100 100 100 100 100 100 100 100 100 100 100 100 100 100 100
100 100 100 100 17 42 56 16 22 23 54 97 94 100 100 100 100 100 100 100 100 100 100 100 100 100 100 100 100 100 100 100 95 100 100 100 100 100 100 100 100 100 100 100
100 100 100 89 81 99 6 39 100 100 97 100 100 100 100 100 100 100 100 100 100 100 100 100 100 100 100 100 66 56 100 61 99 100 100 100 100 100 100 100 100 100 100 100
100 99 98 100 100 92 53 41 100 100 100 100 100 100 100 100 100 100 100 100 100 100 100 100 100 100 100 100 100 100 100 100 95 98 86 100 100 100 100 100 100 100 100 100
100 100 100 100 83 7 42 5 100 100 100 100 100 100 100 100 100 100 100 100 100 100 100 100 100 100 100 100 100 100 100 100 100 100 58 62 100 100 100 100 100 100 100 100
100 100 100 91 18 5 5 5 22 100 97 100 100 100 100 100 100 100 100 100 100 100 100 100 100 100 100 100 100 100 100 100 99 74 84 42 98 100 100 100 100 100 100 100
100 70 43 6 5 5 5 5 13 100 100 100 100 100 100 100 100 100 100 100 100 100 100 100 100 100 100 100 100 51 8 5 6 21 6 5 5 10 69 100 100 89 100 100
16 5 5 5 5 5 5 5 11 100 100 100 100 100 100 100 100 100 100 100 100 100 100 100 90 65 5 28 45 9 5 5 5 5 5 5 5 5 5 5 5 21 16 98
5 10 97 35 52 17 18 26 91 100 100 100 100 100 100 100 100 100 100 100 100 95 66 100 92 100 99 95 30 5 5 5 5 5 15 10 57 5 45 17 22 44 5 5
5 5 5 5 6 79 95 87 100 100 100 100 100 100 100 100 100 100 100 100 100 70 60 100 100 100 100 16 5 5 5 14 5 5 6 34 6 6 5 5 52 60 40 5
5 5 5 5 34 71 76 100 100 100 100 100 100 100 100 100 100 100 100 100 100 100 100 100 100 100 92 89 20 5 5 9 5 5 5 5 5 5 5 6 5 5 10 59
6 99 100 100 100 91 97 100 100 100 100 100 100 100 100 100 100 100 100 100 100 100 100 100 100 100 100 12 5 63 35 5 11 5 5 5 36 16 54 62 64 52 51 72
5 5 5 43 99 100 100 100 100 100 100 100 100 100 100 100 100 100 100 100 100 100 100 100 100 100 100 30 5 9 14 5 5 42 9 23 48 5 12 39 55 74 85 50
5 5 5 5 98 100 100 100 100 100 100 100 100 100 100 100 100 100 100 100 100 100 100 100 100 100 76 8 5 5 6 32 28 5 17 39 6 7 55 58 69 71 69 90
98 64 16 75 100 100 100 100 100 100 100 100 100 100 100 100 100 100 100 100 100 100 100 100 100 100 100 78 34 22 6 35 24 67 62 57 67 74 68 56 63 91 93 97
99 77 100 92 100 100 100 100 100 100 100 100 100 100 100 100 100 100 100 100 100 100 100 100 100 100 99 33 75 82 52 61 66 79 100 100 55 92 95 100 98 92 86 100
100 87 81 93 100 100 100 100 100 100 100 100 100 100 100 100 100 100 100 100 100 100 100 100 100 100 100 93 90 97 57 42 47 66 62 64 100 100 100 100 97 100 72 69
74 72 76 97 100 100 100 100 100 100 100 100 100 100 100 100 100 100 100 100 100 100 100 100 100 100 100 100 94 82 48 79 98 98 91 100 100 100 100 98 96 96 96 37
80 98 82 98 100 100 100 100 100 100 100 100 100 100 100 100 100 100 100 100 100 100 100 100 100 100 93 68 85 78 100 98 74 76 99 93 93 82 88 67 70 99 61 72
55 69 85 100 100 100 100 100 100 100 100 100 100 100 100 100 100 100 100 100 100 100 100 100 98 98 100 88 100 84 49 8 62 98 100 99 100 100 65 66 99 100 66 89
77 84 81 100 100 100 100 100 100 100 100 100 100 100 100 100 100 100 100 100 100 100 100 100 100 100 100 85 48 26 5 5 79 100 59 74 61 31 59 71 76 53 95 98
100 100 95 92 100 100 100 100 100 100 100 100 100 100 100 100 100 100 100 100 100 100 100 100 100 99 98 78 58 34 5 6 79 90 60 59 37 62 83 74 61 64 11 80

GFSNGP_prec_cloud_129.txt.gz
Cloud_Cover
4 5 10 0 4 8 16 4 4 61 97 81 24 11 5 5 10 50 100 100 100 100 100 100 100 100 100 100 100 100 100 100 100 100 100 100 100 100 100 100 100 100 100 100
5 5 5 1 5 91 5 12 38 92 100 54 5 5 7 17 100 100 100 100 100 100 100 100 100 100 100 100 100 100 100 100 100 100 100 100 100 100 100 100 100 100 100 100
5 5 5 5 100 6 58 100 66 48 12 9 60 29 90 100 100 100 100 100 100 100 100 100 100 100 100 100 100 100 100 100 100 100 100 100 100 100 100 100 100 100 100 100
47 5 52 93 100 44 84 100 74 39 25 33 93 87 94 100 100 100 100 100 100 100 100 100 100 100 100 100 100 100 100 99 100 100 100 100 100 100 100 100 100 100 100 100
92 86 6 100 100 96 50 97 20 12 84 100 81 73 99 100 100 100 100 100 100 100 100 100 100 100 100 100 100 100 100 100 100 100 100 100 100 100 100 100 100 100 100 100
75 96 58 100 100 53 83 75 7 5 98 83 42 86 89 100 100 100 100 100 100 100 100 100 100 100 100 100 100 100 100 100 100 100 100 100 100 100 100 100 100 100 100 100
97 85 100 100 26 33 48 25 5 13 5 42 41 82 100 100 100 100 100 100 100 100 100 100 100 100 100 100 100 100 100 100 100 100 100 100 100 100 100 100 100 100 100 100
100 100 100 100 5 69 14 5 5 5 5 9 89 99 100 100 100 100 100 100 100 100 100 100 100 100 100 100 100 100 99 100 100 100 100 100 100 100 100 100 100 100 100 100
100 100 100 100 96 29 5 35 6 5 5 18 98 100 100 100 100 100 100 100 100 100 100 100 100 100 100 100 100 91 63 97 97 90 100 100 100 95 100 100 100 100 100 100
97 100 100 100 100 35 69 5 5 5 5 5 77 100 100 100 100 100 100 100 100 100 100 100 100 100 100 100 100 100 100 100 98 88 95 100 48 17 6 97 100 100 100 100
100 100 100 100 100 100 34 34 5 5 5 5 69 100 100 100 100 100 100 100 100 100 100 100 100 100 100 100 100 100 100 100 100 97 82 47 93 77 7 55 96 87 66 100
98 100 95 100 100 64 29 5 5 5 5 5 62 98 100 100 100 100 100 100 100 100 100 100 100 100 100 100 100 100 100 43 13 5 5 5 5 5 28 89 100 100 100 70
70 100 100 100 79 5 5 5 5 5 6 28 80 100 100 100 100 100 100 100 100 100 100 100 100 100 100 40 76 69 52 5 5 5 5 5 37 6 5 5 5 27 27 99
100 100 100 88 41 5 5 5 5 54 81 99 100 100 100 100 100 100 100 100 100 100 100 100 100 100 100 64 100 47 5 5 5 57 49 29 68 62 66 63 70 40 5 5
100 100 58 5 5 5 30 59 52 82 92 100 100 100 100 100 100 100 100 100 100 100 100 100 100 100 100 100 100 100 10 5 5 14 43 43 17 49 52 35 59 62 39 12
19 5 5 5 6 19 79 89 96 73 98 100 100 100 100 100 100 100 100 100 100 100 100 100 100 100 100 100 100 100 72 5 18 18 51 52 64 63 60 62 61 65 93 100
44 98 99 96 100 99 90 100 95 100 100 100 100 100 100 100 100 100 100 100 100 100 100 100 100 100 98 100 94 100 100 99 6 5 55 64 74 62 56 60 77 84 88 99
5 5 5 5 95 100 99 100 99 100 100 100 100 100 100 100 100 100 100 100 100 100 100 100 100 100 100 99 72 84 76 100 36 67 9 9 53 16 57 58 92 97 96 45
5 5 5 5 98 100 100 100 100 100 100 100 100 100 100 100 100 100 100 100 100 100 100 100 100 100 100 100 100 100 57 68 46 50 17 41 38 27 55 64 90 69 74 100
60 15 5 40 64 92 100 100 100 100 100 100 100 100 100 100 100 100 100 100 100 100 100 100 100 100 100 100 99 71 41 77 98 99 59 46 93 100 93 81 55 67 88 67
100 80 50 100 95 93 100 100 100 100 100 100 100 100 100 100 100 100 100 100 100 100 100 100 100 100 100 100 100 100 98 100 95 67 78 100 100 100 100 100 100 90 47 70
67 85 100 100 82 100 100 100 100 100 100 100 100 100 100 100 100 100 100 100 100 100 100 100 100 100 100 100 100 100 88 97 100 66 75 86 100 100 100 100 100 94 83 55
100 96 83 76 74 100 99 100 100 100 100 100 100 100 100 100 100 100 100 100 100 100 100 100 100 100 100 100 99 98 100 100 99 93 100 100 100 100 100 100 99 100 100 100
76 75 74 75 78 100 98 98 100 100 100 100 100 100 100 100 100 100 100 100 100 100 100 100 100 100 100 100 100 100 100 100 100 98 86 94 100 61 76 96 94 100 74 99
59 73 71 69 84 90 100 100 100 100 100 100 100 100 100 100 100 100 100 100 100 100 100 100 97 100 100 100 100 100 100 96 100 100 96 100 99 84 64 90 99 99 100 100
77 73 62 73 83 75 88 93 100 100 100 100 100 100 100 100 100 100 100 100 100 100 100 100 100 100 100 100 100 95 70 54 97 67 51 46 89 57 57 31 63 78 84 96
71 70 78 79 100 94 98 100 100 100 100 100 100 100 100 100 100 100 100 100 100 100 100 100 100 100 100 100 90 86 94 86 74 29 92 99 42 55 53 43 59 66 58 61

GFSNGP_prec_cloud_132.txt.gz
Cloud_Cover
100 100 100 5 5 5 9 0 4 0 0 99 5 86 100 41 14 14 6 90 100 100 100 100 100 100 100 100 100 100 100 100 100 100 100 100 100 100 100 100 100 100 100 100
41 100 100 5 29 4 0 0 0 0 25 26 100 98 56 10 13 5 69 74 100 100 100 100 100 100 100 100 100 100 100 100 100 100 100 100 100 100 100 100 100 100 100 100
93 100 83 5 7 5 3 0 0 13 100 100 100 81 36 48 13 97 98 100 100 100 100 100 100 100 100 100 100 100 100 100 100 100 100 100 100 100 100 100 100 100 100 100
100 100 84 79 5 1 0 26 5 97 100 100 83 59 5 23 99 100 100 100 100 100 100 100 100 100 100 100 100 100 100 100 100 100 100 100 100 100 100 100 100 100 100 100
97 16 3 4 5 4 5 98 80 100 100 100 94 22 100 82 100 100 100 100 100 100 100 100 100 100 100 100 100 100 100 100 100 100 100 100 100 100 100 100 100 100 100 100
64 100 56 26 3 5 32 98 100 100 72 98 83 88 7 100 100 100 100 100 100 100 100 100 100 100 100 100 100 100 100 100 100 100 100 100 100 100 100 100 100 100 100 100
62 76 18 75 100 48 97 100 100 100 40 68 40 7 15 99 100 100 100 100 100 100 100 100 100 100 100 100 100 100 100 100 100 100 100 100 100 100 100 100 100 100 100 100
84 100 57 100 100 63 100 100 100 88 29 13 87 82 38 97 100 100 100 100 100 100 100 100 100 100 100 100 100 100 100 100 100 100 100 100 100 100 90 89 92 91 100 100
62 39 100 100 100 99 100 100 91 24 5 18 88 34 6 83 100 100 100 100 100 100 100 100 100 100 100 100 100 100 100 100 100 100 98 74 64 46 90 6 63 100 60 97
25 100 100 100 100 93 77 99 66 8 5 5 5 5 5 77 99 98 100 100 100 100 100 100 100 100 100 100 100 100 100 100 100 100 100 91 93 25 8 22 11 13 97 73
77 100 100 100 100 100 100 47 24 6 5 5 5 5 10 83 96 100 100 100 100 100 100 100 100 100 100 100 100 100 100 100 100 100 97 83 13 46 5 46 43 58 11 47
80 100 100 100 100 100 99 100 53 43 55 20 5 8 86 93 94 100 100 100 100 100 100 100 100 100 100 100 100 100 100 100 44 38 7 8 6 5 30 81 80 82 99 64
100 100 100 100 100 100 100 100 81 44 41 19 52 17 99 100 100 98 100 100 100 100 100 100 100 100 100 100 100 100 96 6 5 5 5 5 5 5 5 4 6 62 68 100
100 100 100 100 100 68 42 62 63 64 58 81 96 100 98 100 100 100 100 100 100 100 100 100 100 100 100 100 100 100 98 28 10 35 50 57 68 64 61 60 78 53 30 53
100 100 100 100 74 52 25 17 14 5 5 59 87 100 100 100 100 100 100 100 100 100 100 100 100 100 100 100 100 100 100 100 100 100 63 62 62 61 62 57 75 87 47 15
95 76 17 5 6 6 7 13 51 33 46 85 100 100 100 100 100 99 100 100 100 100 100 100 100 100 100 100 100 100 100 100 100 63 100 100 100 68 57 58 66 93 98 100
23 80 18 32 27 36 67 58 91 99 99 100 100 100 100 100 100 100 100 100 100 100 100 100 100 100 100 100 100 100 100 100 82 89 66 100 70 69 73 64 69 86 99 98
5 5 5 5 5 71 99 88 90 76 99 100 100 100 100 100 100 100 100 100 100 100 100 100 100 100 100 100 100 100 100 100 100 100 100 67 70 7 42 34 38 45 73 66
5 5 5 5 94 100 100 87 75 86 100 100 100 100 100 100 100 100 100 100 100 100 100 100 100 100 100 100 100 100 100 100 100 100 100 100 48 86 60 5 28 31 27 22
5 5 5 8 62 100 96 83 86 100 100 100 100 100 100 100 100 100 100 100 100 100 100 100 100 100 100 100 100 100 100 100 100 100 86 64 92 100 86 49 61 71 42 9
100 94 31 100 99 100 85 93 100 100 100 100 100 100 100 100 100 100 100 100 100 100 100 100 100 100 100 100 100 100 100 100 100 100 100 100 100 93 100 100 78 59 60 51
89 77 100 100 100 95 90 94 99 100 100 100 100 100 100 100 100 100 100 100 100 100 100 100 100 100 100 100 100 100 100 100 100 100 100 91 100 100 100 100 100 89 89 79
100 100 100 100 86 90 90 99 94 100 100 100 100 100 100 100 100 100 100 100 100 100 100 100 100 100 100 100 100 100 100 100 100 95 99 100 100 100 85 72 72 100 100 99
100 100 86 84 88 96 82 94 85 83 98 100 100 100 100 100 100 100 100 100 100 100 100 100 100 100 100 100 100 100 100 100 98 84 100 98 67 40 55 80 32 16 94 100
78 86 86 82 80 87 82 84 90 99 100 100 100 100 100 100 100 100 100 100 100 100 100 100 100 100 100 100 100 100 99 86 90 86 58 50 41 55 55 39 58 81 99 92
78 82 76 78 66 63 76 78 90 94 99 100 100 100 100 100 100 100 100 100 100 100 100 100 100 100 100 100 100 100 95 94 56 55 31 18 30 7 20 22 33 34 69 73
88 71 82 91 80 74 88 92 99 99 97 98 100 100 99 99 100 100 100 100 100 100 100 100 100 100 100 100 100 87 88 50 55 26 54 32 5 18 40 29 45 26 38 65

GFSNGP_prec_cloud_135.txt.gz
Cloud_Cover
100 100 100 100 98 100 100 60 99 4 0 0 0 0 3 5 55 78 10 5 7 82 68 100 100 100 100 100 100 100 100 100 100 100 100 100 100 100 100 100 100 100 100 100
100 100 99 10 97 100 33 70 34 1 0 0 0 0 15 100 100 40 5 21 89 61 100 100 100 100 100 100 100 100 100 100 100 100 100 100 100 100 100 100 100 100 100 100
100 100 100 85 70 85 68 100 74 3 0 0 5 67 67 62 51 5 6 82 94 90 100 100 100 100 100 100 100 100 100 100 100 100 100 100 100 100 100 100 100 100 100 100
100 99 40 52 47 65 100 100 22 0 0 52 100 100 94 43 5 12 78 88 97 100 95 100 100 100 100 100 100 100 100 100 100 100 100 100 100 100 100 100 100 100 100 100
77 18 2 0 89 55 8 2 0 0 37 100 100 100 99 19 5 36 100 100 100 100 100 100 100 100 100 100 100 100 100 100 100 100 100 100 100 100 100 100 100 100 100 100
90 99 34 0 30 4 0 3 0 13 100 100 92 100 68 31 5 28 100 100 100 100 100 100 100 100 100 100 100 100 100 100 100 100 100 100 100 100 100 100 100 100 100 100
94 93 10 3 1 5 12 5 41 93 100 68 85 100 79 11 5 35 100 100 100 100 100 100 100 100 100 100 100 100 100 100 100 100 100 100 100 100 100 100 100 100 100 100
70 100 60 5 93 34 87 95 100 100 100 100 69 82 78 5 5 24 100 100 100 100 100 100 100 100 100 100 100 100 100 100 100 100 100 100 100 100 100 100 100 100 100 97
5 5 29 20 89 100 99 74 99 100 100 100 77 83 60 5 5 5 99 100 100 100 100 100 100 100 100 100 100 100 100 100 100 100 100 100 100 100 100 100 92 82 70 93
5 74 100 10 39 100 85 100 100 100 100 100 96 40 31 5 5 31 75 100 100 100 100 100 100 100 100 100 100 100 100 100 100 100 100 100 100 100 99 96 88 72 100 100
5 28 31 6 60 98 100 100 100 100 100 100 100 28 30 5 66 77 85 86 100 100 100 100 100 100 100 100 100 100 100 100 100 100 100 100 100 93 82 89 95 100 100 100
5 52 10 62 96 100 100 100 100 100 100 92 100 54 30 6 77 100 97 100 100 100 100 100 100 100 100 100 100 100 100 100 100 100 100 100 72 47 32 84 97 99 99 100
56 25 79 100 100 92 100 100 100 100 100 68 50 17 34 44 79 100 100 100 100 100 100 100 100 100 100 100 100 100 100 100 100 100 21 6 5 5 5 22 17 90 78 98
67 100 100 100 100 100 100 100 96 89 80 47 47 56 62 84 78 100 100 99 97 100 100 100 100 100 100 100 100 100 100 100 100 100 96 66 70 63 63 75 72 85 93 100
100 100 100 100 100 91 61 41 17 5 5 5 6 63 90 97 100 100 100 100 100 100 100 100 100 100 100 100 100 100 100 100 100 96 87 92 80 72 84 99 100 100 91 45
100 100 100 100 97 20 5 5 5 5 5 5 14 87 100 100 100 100 100 100 100 100 100 100 100 100 100 100 100 100 100 100 100 100 100 95 8 69 66 72 99 100 100 100
100 100 52 12 6 26 6 8 24 81 35 17 64 87 99 100 100 100 100 100 100 100 100 100 100 100 100 100 100 100 100 100 100 100 100 100 95 97 100 100 95 100 100 89
96 42 13 5 5 15 29 80 95 81 76 90 96 94 99 100 98 100 100 100 100 100 100 100 100 100 100 100 100 100 100 100 100 100 100 100 100 100 100 87 62 52 92 87
65 40 5 5 5 5 65 70 77 81 88 83 95 94 100 100 100 100 100 100 100 100 100 100 100 100 100 100 100 100 100 100 100 100 100 100 100 100 99 82 71 72 64 53
68 12 5 5 30 89 94 96 67 92 87 86 97 100 100 100 100 100 100 100 100 100 100 100 100 100 100 100 100 100 100 100 100 100 100 100 100 100 100 88 54 66 54 45
50 47 8 83 97 100 77 79 65 91 100 83 97 100 100 100 100 100 100 100 100 100 100 100 100 100 100 100 100 100 100 100 100 100 100 100 99 100 92 86 76 59 45 6
39 23 98 100 100 100 88 95 95 98 96 100 100 100 100 100 100 100 100 100 100 100 100 100 100 100 100 100 100 100 100 100 100 100 99 100 99 98 100 70 26 22 5 70
87 100 100 100 100 98 94 91 100 100 84 100 84 100 100 100 100 100 100 100 100 100 100 100 100 100 100 100 100 100 100 100 100 100 100 100 100 63 26 6 5 5 40 83
100 100 100 99 94 87 92 99 97 99 100 95 89 89 100 100 100 100 100 100 100 100 100 100 100 100 100 100 100 100 100 100 100 96 80 97 62 5 5 5 5 51 77 66
100 100 82 83 85 96 97 100 100 100 100 100 100 100 100 100 100 100 100 100 100 100 100 100 100 100 100 100 100 100 100 93 90 93 100 76 64 12 12 5 5 57 61 73
100 97 83 73 65 82 95 96 87 100 100 100 100 100 99 100 100 100 100 100 100 100 100 100 100 100 100 100 100 100 100 100 100 100 100 81 21 5 5 5 30 65 75 75
100 90 93 92 92 89 92 95 96 100 97 98 96 100 100 100 100 100 100 100 100 100 100 100 100 100 100 100 100 100 100 100 100 94 62 44 5 5 5 5 60 75 83 81

GFSNGP_prec_cloud_138.txt.gz
Cloud_Cover
100 100 100 95 84 19 100 100 97 5 5 85 15 18 5 1 4 4 5 26 5 5 5 5 5 29 100 100 100 100 100 100 100 100 100 100 100 100 100 100 100 100 100 100
100 60 78 7 6 100 100 40 50 5 20 7 8 5 5 0 1 5 24 8 5 34 36 10 17 93 100 100 100 100 100 100 100 100 100 100 100 100 100 100 100 100 100 97
100 33 79 75 73 83 43 6 45 20 5 5 5 3 0 1 7 5 42 5 34 65 93 5 64 100 100 100 100 100 100 100 100 100 100 100 100 100 100 100 100 100 100 98
100 100 92 47 99 100 100 83 100 24 5 5 3 1 5 40 57 31 15 5 66 84 59 6 60 100 100 100 100 100 100 100 100 100 100 100 100 100 100 100 100 100 100 100
100 100 100 100 100 100 100 61 41 5 4 0 5 5 8 98 100 54 5 25 80 88 35 54 61 100 100 100 100 100 100 100 100 100 100 100 100 100 100 100 100 100 100 100
100 100 100 84 100 100 14 20 0 0 0 2 5 20 100 100 99 38 5 5 37 100 94 88 91 100 100 100 100 100 100 100 100 100 100 100 100 100 100 100 100 100 100 100
100 100 76 100 99 90 4 0 0 1 5 70 15 100 100 100 82 20 5 5 82 100 99 87 100 100 100 100 100 100 100 100 100 100 100 100 100 100 100 100 100 100 100 100
100 100 78 63 10 3 5 5 5 28 48 100 99 100 100 100 70 48 5 9 89 100 100 98 100 100 100 100 100 100 100 100 100 100 100 100 100 100 100 100 100 100 100 100
10 60 10 0 1 2 12 91 7 90 100 100 100 100 100 76 50 30 5 5 53 94 100 100 100 100 100 100 100 100 100 100 100 100 100 100 100 100 100 100 100 99 99 100
5 5 3 0 0 5 5 5 30 100 100 100 100 100 100 64 60 18 6 7 7 61 98 100 100 100 100 100 100 100 100 100 100 100 100 100 100 100 100 100 100 100 100 100
4 28 0 1 1 5 5 49 100 100 100 97 100 100 100 98 30 8 11 58 65 69 82 96 99 100 100 100 100 100 100 100 100 100 100 100 100 100 100 100 100 100 100 100
5 3 4 5 4 5 6 99 98 100 100 100 100 100 100 100 100 64 33 84 100 93 100 86 100 100 100 100 100 100 100 100 100 100 100 100 100 100 100 97 98 100 91 98
1 3 3 5 5 54 100 97 97 100 100 100 100 100 100 100 97 100 84 97 100 100 98 100 100 100 100 100 100 100 100 100 100 100 100 100 100 100 98 91 36 100 100 100
5 5 7 45 100 100 100 100 100 99 90 81 65 71 70 65 81 92 79 100 100 100 100 100 100 100 100 100 100 100 100 100 100 100 100 100 100 100 100 100 100 100 82 58
5 69 100 100 100 100 100 100 100 59 16 5 5 5 5 6 32 95 100 100 100 100 100 100 100 100 100 100 100 100 100 100 100 100 100 100 100 100 100 100 100 100 100 96
100 100 100 100 100 100 100 58 22 5 5 5 5 5 20 94 99 92 100 100 100 100 100 100 100 100 100 100 100 100 100 100 100 100 100 100 100 100 100 99 100 100 100 89
100 100 100 100 100 78 24 5 5 9 21 23 26 42 93 97 100 100 100 100 100 100 100 100 100 100 100 100 100 100 100 100 100 100 100 100 100 100 100 100 100 100 100 100
100 100 100 63 21 5 10 23 13 20 69 40 56 68 76 94 100 100 100 100 100 100 100 100 100 100 100 100 100 100 100 100 100 100 100 100 100 100 100 100 100 100 100 100
100 64 7 38 5 8 44 48 46 58 97 72 84 84 95 100 100 100 100 100 100 100 100 100 100 100 100 100 100 100 100 100 100 100 100 100 100 100 100 100 94 99 98 100
6 23 65 47 30 30 82 76 78 84 98 95 96 100 100 100 100 100 100 100 100 100 100 100 100 100 100 100 100 100 100 100 100 100 100 100 100 100 100 97 67 92 100 100
41 92 99 100 74 100 99 84 74 90 100 100 94 100 99 100 100 100 100 100 100 100 100 100 100 100 100 100 100 100 100 100 100 100 100 100 100 99 100 100 100 100 100 100
100 100 98 100 100 100 92 100 87 86 98 98 100 100 100 100 100 100 100 100 100 100 100 100 100 100 100 100 100 100 100 100 100 100 100 100 100 100 100 97 88 98 100 100
100 100 100 100 100 100 95 100 91 93 96 97 99 100 94 100 100 100 100 100 100 100 100 100 100 100 100 100 100 100 100 100 100 100 100 100 100 100 97 92 70 78 98 100
100 100 100 100 100 100 95 100 96 96 98 97 100 100 97 100 100 99 100 100 100 100 100 100 100 100 100 100 100 100 100 100 100 100 100 100 100 96 100 85 26 87 94 89
100 100 100 100 100 100 100 97 97 100 94 100 100 100 100 100 100 100 100 100 100 100 100 100 100 100 100 100 100 100 100 100 100 100 100 100 100 100 86 73 16 92 100 100
100 100 100 100 100 96 99 94 98 100 100 100 100 100 100 100 100 100 100 100 100 100 100 100 100 100 100 100 100 100 100 100 100 100 100 100 99 66 59 64 74 96 100 100
100 100 100 86 92 93 94 99 100 100 100 100 100 100 100 100 99 92 100 100 100 100 100 100 100 100 100 100 100 100 100 100 100 100 100 99 84 96 89 72 99 100 100 100

GFSNGP_prec_cloud_141.txt.gz
Cloud_Cover
100 100 100 100 100 100 78 100 100 28 44 89 90 41 5 4 0 0 4 5 5 5 5 5 5 5 6 93 99 100 100 100 100 100 100 100 100 100 100 100 100 100 100 100
100 100 100 100 66 99 100 87 100 93 12 100 5 2 5 5 5 5 5 5 5 5 5 5 5 5 5 59 89 100 100 100 100 100 100 100 100 100 100 100 100 100 100 100
87 100 100 15 89 100 100 100 100 100 95 5 5 5 5 5 4 5 5 5 8 10 5 5 5 5 87 51 100 100 100 100 100 100 100 100 100 100 100 100 100 100 100 100
100 100 100 100 100 100 100 100 100 94 32 61 15 21 5 3 0 5 5 6 16 5 5 5 5 5 82 100 100 100 100 100 100 100 100 100 100 100 100 100 100 100 100 100
100 100 95 42 93 100 100 100 97 86 97 100 83 5 5 2 5 5 19 84 19 5 14 8 21 5 44 100 100 100 100 100 100 100 100 100 100 100 100 100 100 100 100 100
100 100 96 100 100 100 98 5 74 100 100 69 5 4 17 3 5 79 100 90 11 8 5 11 27 97 100 100 100 100 100 100 100 100 100 100 100 100 100 100 100 100 100 100
100 100 100 100 100 97 32 68 69 63 88 14 2 8 40 55 71 100 100 66 64 5 16 84 56 100 99 100 100 100 100 100 100 100 100 100 100 100 100 100 100 100 100 100
100 100 100 100 54 99 100 100 20 5 4 100 95 100 100 99 91 100 100 68 63 31 74 84 91 100 100 100 100 100 100 100 100 100 100 100 100 100 100 100 100 100 100 100
100 100 88 100 100 100 98 5 5 5 5 83 100 100 100 100 100 100 100 86 83 44 75 87 87 100 100 100 100 100 100 100 100 100 100 100 100 100 100 100 100 100 100 100
100 100 100 100 100 36 5 5 3 5 5 5 41 100 100 100 100 100 100 79 94 69 74 86 83 100 100 100 100 100 100 100 100 100 100 100 100 100 100 100 100 100 100 100
100 100 100 100 9 5 4 18 2 5 5 34 100 100 100 100 100 100 100 61 67 72 52 78 78 100 100 100 100 100 100 100 100 100 100 100 100 100 100 100 100 100 100 100
100 100 92 51 12 5 0 5 5 5 37 100 97 100 100 100 100 100 100 100 99 68 91 90 100 100 100 100 100 100 100 100 100 100 100 100 100 100 100 100 100 100 96 67
100 22 5 5 0 0 4 5 36 98 100 88 76 100 100 98 100 100 100 100 100 100 99 100 100 100 100 100 100 100 100 100 100 100 100 100 100 100 100 100 100 100 100 100
5 5 5 5 3 15 92 100 100 100 100 100 100 100 81 20 37 10 28 55 96 100 100 100 100 100 100 100 100 100 100 100 100 100 100 100 100 100 100 100 100 100 100 100
5 5 5 8 93 100 97 100 100 100 100 100 92 14 5 12 5 5 40 70 99 100 100 100 100 100 100 100 100 100 100 100 100 100 100 100 100 100 100 100 100 100 100 100
5 5 40 100 100 71 100 100 100 100 74 23 5 5 5 71 95 80 98 98 97 97 100 100 100 100 100 100 100 100 100 100 100 100 100 100 100 100 100 100 100 100 100 100
6 92 100 90 94 100 100 100 32 5 11 55 37 11 37 71 80 99 92 90 100 100 100 100 100 100 100 100 100 100 100 100 100 100 100 100 100 100 100 100 100 80 100 90
100 100 100 100 100 100 57 9 5 15 48 62 21 6 48 82 100 100 98 100 100 100 100 100 100 100 100 100 100 100 100 100 100 100 100 100 100 100 100 100 100 100 100 100
100 94 100 100 74 19 32 66 88 67 16 5 27 65 85 100 100 100 100 100 100 100 100 100 100 100 100 100 100 100 100 100 100 100 100 100 100 100 100 100 100 100 100 100
99 100 98 69 65 56 60 97 99 93 100 100 100 100 100 99 100 100 100 100 100 100 100 100 100 100 100 100 100 100 100 100 100 100 100 100 100 100 98 100 100 100 100 100
100 60 98 92 100 98 100 100 100 100 100 100 100 100 100 100 100 100 100 100 100 100 100 100 100 100 100 100 100 100 100 100 100 100 100 100 100 100 100 100 100 100 100 100
99 97 94 87 100 99 100 100 100 100 100 100 100 100 100 100 100 100 100 100 100 95 100 100 100 100 100 100 100 100 100 100 100 100 100 100 100 100 100 100 100 100 100 100
100 100 100 100 100 100 100 100 100 100 100 100 100 100 100 100 96 100 100 98 100 100 100 100 100 100 100 100 100 100 100 100 100 100 100 100 100 100 100 100 100 100 100 100
100 100 100 100 100 100 100 100 100 100 100 100 100 100 100 100 100 100 100 94 85 100 100 100 100 100 100 100 100 100 100 100 100 100 100 100 100 100 100 100 84 100 100 89
100 100 100 100 100 100 100 100 100 100 100 100 100 100 100 100 99 100 100 100 88 80 100 100 100 100 100 100 100 100 100 100 100 100 100 100 100 100 100 100 90 100 100 100
100 100 100 100 100 100 100 100 100 100 100 100 100 100 100 99 100 99 100 96 94 90 99 100 100 100 100 100 100 100 100 100 100 100 100 100 100 100 100 96 100 89 100 100
95 100 100 100 100 100 100 100 100 100 100 100 100 100 100 100 100 100 100 100 100 100 100 100 100 100 100 100 100 100 100 100 100 100 100 100 100 100 100 100 100 100 100 100

GFSNGP_prec_cloud_144.txt.gz
Cloud_Cover
100 100 100 100 100 100 100 100 100 99 100 100 100 100 18 54 92 100 13 3 0 4 5 5 5 5 5 8 5 85 100 100 100 100 100 100 100 100 100 100 100 100 100 100
100 100 100 100 100 100 100 100 100 100 60 100 100 79 5 100 94 60 5 0 2 4 5 5 1 5 5 5 5 57 100 100 100 100 100 100 100 100 100 100 100 100 100 100
100 100 100 99 100 100 100 100 100 100 95 100 100 89 100 93 14 13 0 0 2 5 5 4 41 5 5 5 5 22 97 100 100 100 100 100 100 100 100 100 100 100 100 100
100 100 100 100 100 100 100 90 100 100 100 100 100 94 100 100 74 0 2 3 5 5 3 94 6 5 5 5 5 50 100 100 100 100 100 100 100 100 100 100 100 100 100 100
100 100 100 73 100 100 100 74 100 100 98 100 100 100 100 60 3 5 3 3 5 5 60 9 5 5 5 74 89 100 100 100 100 100 100 100 98 100 100 100 100 100 100 100
100 100 66 90 100 78 98 24 100 100 100 100 100 100 51 3 5 5 7 5 9 73 78 13 5 5 55 100 100 100 100 100 100 100 100 100 100 100 100 100 100 100 100 100
97 100 34 70 100 38 21 74 5 93 100 100 100 59 27 23 15 2 6 33 35 100 85 44 5 5 73 100 100 100 100 100 100 100 100 100 100 100 100 100 100 100 100 100
100 100 40 95 100 5 88 70 100 100 99 100 86 100 100 89 5 8 73 73 85 100 100 68 28 6 86 100 100 100 100 100 100 100 100 100 100 100 100 100 100 100 100 100
100 100 100 100 99 95 100 100 100 91 100 100 100 100 96 8 5 98 98 95 88 100 100 64 67 49 85 100 100 100 99 100 100 100 100 100 100 100 100 100 100 100 100 100
100 100 100 100 100 100 100 100 100 100 100 98 53 100 68 5 23 100 100 91 92 100 100 91 76 72 55 96 100 100 100 100 100 100 100 100 100 100 100 100 100 100 100 100
96 100 100 100 100 100 100 100 100 100 100 5 3 22 54 8 98 95 93 100 100 87 98 76 61 78 90 80 100 100 100 100 100 100 100 100 100 100 100 100 100 100 100 100
100 100 95 98 99 100 100 100 100 73 6 4 4 2 43 99 88 78 98 100 100 62 100 100 100 100 78 81 100 100 100 100 100 100 100 100 100 100 100 100 100 100 100 100
100 100 100 100 100 100 100 100 13 5 5 28 99 100 100 97 63 78 99 98 40 28 55 100 100 100 100 100 100 100 100 100 100 100 100 100 100 100 100 100 100 100 100 100
100 100 100 100 100 100 31 5 4 65 100 100 100 100 100 100 100 99 54 10 5 5 5 12 83 99 100 100 100 100 100 100 100 100 100 100 100 100 100 100 100 100 100 100
100 100 100 100 91 49 5 27 100 100 100 100 100 100 100 94 58 8 5 5 5 14 13 5 86 93 100 100 100 100 100 100 100 100 100 100 100 100 100 100 100 100 100 100
100 100 100 60 5 6 82 100 100 100 100 100 100 89 24 5 9 5 5 5 18 97 92 91 86 100 97 100 100 100 100 100 100 100 100 100 100 100 100 100 100 100 100 100
92 89 16 5 5 97 100 100 100 100 100 78 16 5 5 5 67 61 6 67 99 100 99 100 94 100 100 100 99 100 100 100 100 100 100 100 100 100 100 100 100 100 100 89
42 5 5 5 100 98 100 100 100 87 27 5 5 5 5 5 16 65 91 85 100 100 96 100 100 100 100 100 96 100 100 100 100 100 100 100 100 100 100 100 100 96 100 98
62 5 43 100 78 100 100 100 60 6 5 46 21 5 6 92 97 100 100 100 100 96 100 100 100 100 100 100 100 100 100 100 100 100 100 100 100 100 100 100 100 100 100 93
6 91 98 91 100 98 100 78 5 48 84 40 15 17 46 87 88 84 99 96 80 90 84 94 99 98 100 100 100 100 100 100 100 100 100 100 100 100 100 100 100 100 100 92
76 82 100 100 100 100 99 100 100 100 100 100 100 100 100 100 95 79 82 98 98 97 76 89 94 99 100 100 100 100 100 100 100 100 100 100 100 100 100 100 100 100 100 100
100 96 100 100 100 100 100 100 100 100 100 100 100 100 100 94 92 88 93 98 99 86 86 69 82 100 100 100 100 100 100 100 100 100 100 100 100 100 100 100 100 100 100 100
100 100 100 92 91 100 100 100 100 100 100 100 100 100 100 97 92 96 100 99 54 80 88 78 94 92 100 100 100 100 100 100 100 100 100 100 100 100 100 100 100 100 100 100
100 100 100 100 100 96 100 100 100 100 100 100 100 100 92 92 85 100 92 51 92 96 96 82 85 90 100 100 100 100 100 100 100 100 100 100 100 100 100 100 100 100 100 97
100 100 100 100 100 100 100 100 100 100 100 100 100 95 100 99 91 94 26 82 88 95 98 91 100 91 98 100 100 100 100 100 100 100 100 100 100 100 100 100 100 98 100 51
100 100 100 100 100 100 100 100 100 100 100 100 100 100 100 100 100 71 52 77 99 99 92 92 97 82 97 96 99 100 100 100 100 100 100 100 100 100 98 99 92 52 39 85
100 100 100 100 100 100 100 100 100 100 100 100 100 100 100 100 100 86 92 80 95 98 87 86 93 88 98 96 100 100 100 100 100 100 100 100 100 96 95 64 68 97 100 66

GFSNGP_prec_cloud_147.txt.gz
Cloud_Cover
100 100 100 100 100 100 100 98 100 100 100 100 100 100 100 100 98 100 100 100 100 97 26 33 18 5 5 5 18 6 5 18 64 98 100 100 100 100 100 100 100 100 100 100
100 100 100 100 100 100 100 100 100 98 52 100 100 100 100 100 100 100 100 100 99 67 100 91 5 5 5 5 5 19 41 40 73 70 74 100 100 100 100 99 100 100 100 100
100 100 100 100 100 100 100 100 100 100 100 100 100 100 100 100 100 100 18 5 30 35 45 5 3 3 5 5 9 5 22 21 16 6 99 100 100 100 100 100 100 100 100 100
100 100 100 100 100 100 100 100 100 100 100 100 100 100 100 100 100 62 5 5 5 5 5 1 0 0 5 24 22 5 100 100 82 83 99 100 100 100 100 100 100 100 100 100
100 100 100 100 100 100 100 100 100 100 100 100 73 64 95 38 6 5 5 5 5 5 0 0 4 27 96 99 6 50 91 100 100 100 100 100 100 100 100 100 100 100 100 100
100 100 94 94 98 78 100 75 93 48 97 43 84 100 98 6 7 73 95 18 4 5 0 5 11 100 100 75 21 97 100 98 98 100 100 100 100 100 100 100 100 100 100 100
100 100 41 31 47 100 77 5 6 41 100 100 100 97 100 88 96 38 5 5 5 3 7 37 55 100 100 100 56 91 100 96 100 100 100 100 100 100 100 100 100 100 100 100
100 100 84 58 100 44 68 26 10 62 21 100 99 100 100 98 38 7 6 5 5 5 58 100 99 100 100 100 92 72 96 100 100 99 100 100 100 100 100 100 100 100 100 100
100 100 100 98 86 63 96 100 100 80 6 93 100 100 100 67 73 29 6 5 5 69 100 100 100 100 100 100 100 93 95 99 100 100 100 99 99 100 100 100 100 100 100 100
36 58 93 94 97 87 100 100 88 5 99 91 100 100 100 100 93 40 5 8 67 100 100 100 100 100 100 100 100 100 96 100 99 100 100 99 100 100 100 99 100 100 100 100
94 51 81 58 75 100 97 100 99 61 88 100 100 100 100 60 12 5 5 87 97 100 100 100 100 75 86 99 100 100 100 98 100 100 100 100 97 100 100 100 100 100 100 100
100 90 33 99 98 41 92 100 100 74 7 100 100 100 99 10 5 54 100 99 99 95 100 100 91 100 72 85 100 100 100 100 100 100 100 100 100 100 100 100 100 100 100 100
100 100 100 100 62 68 24 86 33 97 100 100 100 100 6 8 6 98 100 92 86 84 84 52 50 78 86 96 100 100 100 100 100 100 100 100 100 100 100 100 100 100 100 100
100 100 100 44 77 100 62 100 100 100 100 100 15 29 98 29 92 100 100 100 100 98 71 19 17 58 100 100 100 100 100 100 99 100 100 100 100 100 100 100 100 100 100 100
100 92 5 19 18 99 100 100 100 100 77 9 86 43 87 100 100 99 93 23 5 5 5 5 5 71 100 95 89 98 100 100 98 100 100 100 100 100 100 100 100 100 100 100
86 6 69 100 100 98 100 100 100 34 9 100 50 95 100 100 96 16 5 5 5 5 5 5 5 90 99 97 100 100 69 98 100 98 100 100 100 100 100 100 100 100 100 100
100 100 100 100 100 100 100 73 6 16 100 100 100 100 100 67 6 5 10 70 64 58 57 44 6 94 100 100 100 96 100 100 100 95 100 100 100 100 100 100 100 100 100 100
100 100 100 100 100 97 25 5 9 100 100 99 100 95 22 5 5 5 8 69 94 91 88 73 65 86 88 87 100 100 100 99 100 100 100 100 100 100 100 100 100 100 100 100
100 100 100 100 62 7 5 16 98 92 100 100 65 15 11 6 7 82 98 100 100 97 89 99 96 96 98 99 88 100 100 100 100 100 100 100 100 100 100 100 100 100 100 100
100 89 21 36 29 20 42 94 79 100 100 40 22 50 34 62 84 95 100 100 100 97 100 100 100 99 100 94 85 100 100 88 100 99 100 100 100 100 100 100 100 100 100 100
100 94 100 86 83 100 100 100 100 88 39 58 32 66 76 62 96 100 98 79 91 40 58 69 76 84 100 100 80 94 98 100 100 100 100 100 100 100 100 100 100 100 100 100
100 96 96 99 96 97 100 100 100 100 100 100 100 100 82 92 83 86 87 47 100 37 92 87 68 61 97 87 84 86 99 100 100 100 100 100 100 100 100 100 100 100 100 100
100 100 100 100 100 100 100 100 100 100 100 100 100 100 93 63 39 68 87 92 87 86 44 5 5 56 93 79 84 87 70 96 99 100 100 100 100 100 100 100 100 100 100 100
100 100 100 100 100 100 100 100 100 100 100 100 100 100 64 55 60 82 6 48 75 30 8 17 26 93 84 77 58 72 97 100 100 100 100 100 100 100 100 100 100 100 100 100
100 100 100 100 100 100 100 100 100 100 100 100 100 82 75 59 38 51 48 84 54 55 27 43 57 84 86 81 99 97 88 90 96 100 98 100 100 100 100 100 100 100 100 100
100 100 100 100 100 100 100 100 98 100 100 100 100 99 96 93 55 25 69 100 73 80 85 76 87 86 95 100 98 99 97 90 97 100 100 100 100 100 100 100 100 100 89 77
100 100 100 100 100 100 100 100 100 100 99 100 100 100 99 99 82 68 67 99 89 100 89 82 89 99 97 96 88 85 94 100 100 100 100 96 96 100 100 100 100 100 97 83

GFSNGP_prec_cloud_150.txt.gz
Cloud_Cover
100 100 100 100 99 100 100 100 100 10 26 100 100 100 100 100 100 100 100 100 100 100 100 100 100 100 100 62 56 52 19 5 63 54 5 73 8 13 100 100 100 100 99 76
100 100 100 100 100 100 100 100 100 100 33 100 100 100 100 100 100 100 100 100 100 100 100 100 100 45 5 8 5 5 52 70 59 15 23 5 7 50 100 100 100 100 100 100
100 100 100 100 100 100 100 100 100 100 100 100 100 100 100 100 100 100 100 100 100 100 100 95 10 5 5 11 5 5 35 72 76 95 98 89 56 80 100 100 100 100 100 100
100 100 100 100 100 100 100 100 100 100 100 100 100 100 100 100 100 100 99 100 100 75 47 9 5 5 7 5 5 5 48 59 70 100 100 97 100 98 100 100 100 100 100 100
100 100 100 100 100 100 100 100 100 100 100 100 100 100 100 100 82 48 14 17 11 5 5 7 5 5 5 5 5 95 100 100 96 100 100 100 100 100 100 100 100 100 100 100
100 100 85 100 100 100 100 100 100 100 94 100 99 96 78 58 6 5 5 15 16 5 5 5 5 5 5 8 99 100 100 100 100 100 100 100 100 100 100 100 100 100 100 100
100 100 82 32 66 83 78 94 43 32 50 98 98 99 100 77 16 26 5 26 28 7 21 5 5 5 5 78 100 100 100 100 100 100 100 100 100 100 100 100 100 100 100 100
100 100 83 96 100 55 18 5 5 93 98 92 99 96 100 57 5 5 5 6 48 41 15 5 5 5 61 100 100 100 100 100 100 100 96 100 100 100 100 100 100 100 100 100
100 100 96 87 95 9 86 12 5 65 98 100 97 100 54 5 5 5 97 99 41 24 10 38 5 29 100 100 100 100 100 100 100 100 100 87 99 100 100 100 100 100 100 100
96 100 100 88 77 100 86 68 87 80 5 100 99 73 70 5 5 34 100 75 64 21 5 13 54 25 99 100 91 100 98 100 100 100 100 100 100 100 96 100 100 100 100 100
100 100 100 100 100 100 100 97 93 67 72 100 100 97 100 97 100 100 100 98 9 5 32 100 82 80 35 22 56 78 78 89 99 100 100 100 100 100 100 100 100 100 100 100
100 100 100 100 99 100 100 44 2 5 12 89 97 99 91 87 100 100 93 5 5 64 100 82 60 64 43 26 83 80 83 82 99 98 100 100 100 100 100 100 100 100 100 100
100 100 100 100 100 45 77 38 5 5 61 100 93 75 100 100 89 70 5 30 99 100 100 87 67 36 18 78 99 95 92 93 100 100 100 100 100 100 100 100 100 100 100 100
100 100 100 100 100 97 41 5 19 5 5 64 92 100 100 99 7 17 99 98 100 100 80 34 17 5 5 74 88 93 96 99 95 85 99 100 99 100 100 100 100 100 100 100
80 100 100 100 49 8 11 7 6 5 42 98 100 100 100 5 51 100 100 100 100 86 7 5 24 28 5 90 100 100 100 100 100 100 100 86 65 96 100 100 100 100 100 100
3 6 95 3 1 5 5 19 96 20 100 100 97 100 32 100 100 100 100 97 86 11 5 5 5 5 64 86 99 97 100 100 100 100 100 100 100 99 93 100 100 100 100 100
5 16 6 1 3 5 6 71 100 79 58 96 86 26 90 100 100 100 100 75 34 5 5 9 8 5 60 90 84 89 100 100 100 100 100 100 100 100 100 100 100 100 100 100
20 63 88 100 100 100 100 100 55 82 100 98 12 30 90 100 100 90 80 38 24 84 56 37 5 7 45 75 76 94 100 100 100 100 100 100 100 100 100 100 100 96 100 100
100 100 100 100 100 100 100 100 100 87 25 7 6 42 81 100 98 72 24 48 99 100 76 91 80 76 75 76 78 95 100 100 100 100 100 100 100 100 100 100 100 100 100 100
100 100 100 100 100 100 100 100 8 5 44 5 100 100 100 79 61 28 79 99 100 100 85 79 93 91 91 87 94 91 85 92 100 100 97 100 100 100 100 100 100 100 100 100
99 100 99 93 93 81 16 10 27 5 78 100 100 100 99 95 60 84 90 98 93 91 90 89 86 90 96 88 91 96 78 74 100 100 95 100 100 100 100 100 100 100 100 100
85 85 95 78 96 76 75 67 54 83 94 100 100 77 74 76 77 82 95 100 99 91 81 88 96 96 99 93 92 100 90 93 85 95 100 100 100 100 100 100 100 100 100 100
100 100 95 99 96 99 100 100 100 100 100 100 100 99 99 45 39 72 98 82 100 94 92 66 58 62 90 82 80 62 87 100 99 100 99 100 100 100 100 100 100 100 100 100
92 97 100 100 100 100 100 100 100 100 100 100 100 100 78 90 93 80 20 85 100 93 60 19 44 58 97 79 88 81 95 97 99 99 100 100 100 100 100 100 100 100 100 100
100 99 100 100 100 100 100 100 100 100 100 100 99 94 66 94 69 88 89 88 90 77 37 70 70 63 98 100 78 95 100 100 100 97 100 100 100 97 100 100 100 100 100 100
100 100 100 100 100 100 100 100 100 100 100 99 100 100 100 100 100 100 65 76 54 65 78 72 79 77 96 74 90 97 97 99 99 99 95 91 99 99 100 98 98 100 100 100
100 100 100 100 100 100 100 96 90 99 100 100 100 100 100 100 90 73 77 66 80 78 77 72 69 69 82 86 98 98 94 100 98 98 93 95 94 86 94 100 100 100 95 98

GFSNGP_prec_cloud_153.txt.gz
Cloud_Cover
100 100 100 100 100 100 100 100 100 43 100 100 100 100 100 97 82 100 100 88 100 100 100 100 100 100 100 100 93 58 37 33 80 73 18 6 5 35 5 5 12 100 96 99
100 100 100 100 100 100 100 100 100 100 100 100 100 100 100 96 37 29 100 100 100 100 100 100 100 100 58 95 76 10 54 75 73 17 26 5 52 100 87 15 7 100 100 98
100 100 100 100 100 100 100 100 100 83 100 100 94 100 100 100 100 100 100 100 100 100 100 100 100 100 86 47 36 5 39 90 69 62 61 52 92 100 100 66 87 100 100 100
100 100 100 100 100 100 100 100 100 100 100 100 100 100 100 100 100 100 100 100 100 100 100 99 80 56 56 34 10 13 5 20 77 58 55 100 100 100 91 81 100 100 100 100
100 95 57 59 100 100 100 100 100 100 100 100 100 100 100 100 100 100 100 100 99 77 73 75 71 96 80 43 5 5 5 5 5 84 100 99 100 100 74 61 90 100 100 100
100 100 45 20 100 100 100 67 94 100 100 100 99 96 100 72 99 96 94 96 98 100 100 100 97 60 16 5 5 5 5 5 74 100 100 100 100 100 62 30 68 100 100 100
100 100 100 100 100 100 52 82 100 100 97 100 100 100 100 100 91 100 100 100 97 89 47 44 5 5 5 5 5 5 5 67 100 100 100 100 100 100 68 88 100 100 100 100
100 100 91 100 100 83 74 62 48 79 100 100 100 100 100 100 100 100 100 100 72 27 9 5 5 5 5 5 5 5 39 100 100 100 100 100 100 100 100 96 100 100 100 100
100 100 100 14 100 50 78 94 100 100 100 100 100 100 100 100 100 100 51 8 44 6 5 41 5 5 5 11 29 77 67 100 100 100 100 100 100 100 100 98 100 100 100 100
100 100 100 100 100 100 100 100 100 100 100 100 100 100 100 100 100 66 10 11 5 5 5 70 14 8 78 92 79 98 99 96 98 97 94 100 100 100 100 100 100 100 100 100
100 100 59 30 55 83 90 95 100 100 100 100 100 100 77 88 84 5 12 5 5 5 84 47 5 5 32 60 96 75 62 27 75 25 54 90 100 100 100 100 100 100 100 100
100 100 98 100 100 100 100 95 88 95 68 100 100 100 95 17 95 85 100 33 5 54 30 5 21 80 69 63 78 28 9 85 87 71 84 86 93 90 98 100 100 100 100 100
100 100 100 100 100 100 100 100 73 41 6 7 17 100 95 40 38 100 100 15 54 30 5 50 100 60 48 35 26 33 42 94 99 78 91 76 58 86 96 96 100 100 100 100
100 100 100 100 100 100 87 5 5 5 6 49 82 65 91 6 68 9 47 100 25 5 31 100 43 9 55 5 60 77 94 94 100 100 98 98 100 97 77 94 87 98 96 100
100 100 100 100 100 100 99 98 86 100 96 20 10 10 98 31 80 96 100 23 40 43 100 44 5 16 5 5 5 94 100 100 100 99 100 100 99 100 90 95 97 98 100 100
100 100 100 86 100 99 100 100 100 100 100 100 100 29 51 12 100 100 35 55 66 100 99 5 5 8 12 63 30 96 100 100 100 100 100 100 100 100 100 100 100 98 99 100
0 1 3 4 4 4 5 5 17 33 87 10 5 5 62 100 100 51 6 26 100 90 5 6 5 5 19 33 84 100 100 100 100 100 100 100 100 100 100 100 99 90 100 100
8 39 39 5 31 28 12 70 98 32 46 86 26 98 100 100 90 5 23 100 100 28 66 63 7 12 41 66 85 94 100 100 100 100 100 100 100 100 100 100 96 100 98 100
95 96 57 100 100 100 100 100 100 100 100 100 81 87 100 77 6 24 100 100 91 77 95 100 91 53 60 59 59 71 85 99 100 100 100 100 100 100 100 100 100 100 100 100
100 100 100 100 100 86 100 100 100 100 100 100 100 94 58 64 14 100 100 100 90 100 100 96 86 100 60 79 72 65 83 96 100 100 100 100 100 100 100 100 99 100 100 100
100 100 100 100 97 100 100 100 100 100 97 80 96 15 16 95 66 100 97 96 100 98 96 100 100 86 90 100 95 98 90 90 96 100 100 98 99 100 100 100 100 100 100 100
98 100 96 84 81 88 100 97 38 85 84 55 52 19 76 92 81 92 78 97 98 97 98 100 97 95 100 100 100 100 86 91 92 86 86 90 95 100 100 100 100 100 100 100
78 94 98 100 100 100 100 97 93 85 65 68 75 88 96 100 92 67 88 97 98 100 100 94 96 96 91 94 100 88 94 97 91 84 97 100 100 100 100 100 100 100 100 100
100 94 87 83 99 99 100 100 100 100 100 100 100 100 97 86 89 87 99 100 100 99 70 97 95 88 70 75 76 58 78 89 83 86 87 83 86 81 100 100 100 100 100 100
100 100 100 100 100 100 100 100 100 100 100 100 100 98 81 83 87 90 97 100 100 90 98 89 76 92 68 70 72 77 70 81 78 72 83 91 100 100 100 100 97 91 85 84
100 100 100 100 100 100 100 100 100 100 100 100 100 100 100 100 96 86 97 99 100 100 88 76 70 64 61 65 71 79 64 81 89 98 100 100 90 75 78 88 99 99 100 100
100 100 100 100 100 100 100 100 100 100 100 100 100 100 100 100 100 100 100 100 100 98 83 73 62 74 80 76 82 88 88 88 100 100 91 92 96 98 100 100 100 100 100 100